Weather History for Las Vegas, NM

Change the Weather History Date:

Sunday, August 18, 2013

  Actual Average Record
Temperature  
Mean Temperature 69 °F -  
Max Temperature 86 °F 81 °F 91 °F (1973)
Min Temperature 54 °F 53 °F 44 °F (1960)
Cooling Degree Days 4    
Growing Degree Days 19 (Base 50)    
Moisture  
Dew Point 42 °F    
Average Humidity 36    
Maximum Humidity 66    
Minimum Humidity 19    
Precipitation  
Precipitation 0.00 in - - ()
Sea Level Pressure  
Sea Level Pressure 30.03 in    
Wind  
Wind Speed 7 mph (West)    
Max Wind Speed 25 mph    
Max Gust Speed 37 mph    
Visibility 10 miles    
Events Thunderstorm    
Averages and records for this station are not official NWS values.
T = Trace of Precipitation, MM = Missing Value Source: NWS Daily Summary

Daily Weather History Graph

Daily Weather History Graph

Search for Another Location

Airport:

Trip Planner

Search our weather history database for the weather conditions in past years. The results will help you decide how hot, cold, wet, or windy it might be!

Date:

Astronomy

Aug. 18, 2013 Rise Set
Actual Time 6:22 AM MDT 7:45 PM MDT
Civil Twilight 5:55 AM MDT 8:12 PM MDT
Nautical Twilight 5:23 AM MDT 8:44 PM MDT
Astronomical Twilight 4:49 AM MDT 9:18 PM MDT
Moon 5:52 PM MDT (8/18) 3:37 AM MDT (8/18)
Length of Visible Light 14h 17m
Length of Day
13h 23m
Waxing Gibbous, 92% of the Moon is Illuminated
Aug 18
Waxing Gibbous
Aug 20
Full
Aug 28
Last Quarter
Sep 5
New
Sep 12
First Quarter

Hourly Weather History & Observations

Time (MDT) Temp. Dew Point Humidity Pressure Visibility Wind Dir Wind Speed Gust Speed Precip Events Conditions
12:53 AM 66.0 °F 44.1 °F 45% 29.93 in 10.0 mi SSW 4.6 mph - N/A   Partly Cloudy
1:53 AM 59.0 °F 44.1 °F 58% 29.98 in 10.0 mi Calm Calm - N/A   Partly Cloudy
2:53 AM 60.1 °F 43.0 °F 53% 29.94 in 10.0 mi Calm Calm - N/A   Clear
3:53 AM 54.0 °F 43.0 °F 66% 29.96 in 10.0 mi NE 3.5 mph - N/A   Clear
4:53 AM 54.0 °F 42.1 °F 64% 29.95 in 10.0 mi ENE 6.9 mph - N/A   Partly Cloudy
5:53 AM 57.0 °F 39.9 °F 53% 29.96 in 10.0 mi NNE 6.9 mph - N/A   Clear
6:53 AM 55.9 °F 41.0 °F 57% 29.97 in 10.0 mi NE 6.9 mph - N/A   Clear
7:53 AM 63.0 °F 43.0 °F 48% 29.99 in 10.0 mi ENE 4.6 mph - N/A   Clear
8:53 AM 72.0 °F 43.0 °F 35% 29.97 in 10.0 mi NE 5.8 mph - N/A   Clear
9:53 AM 77.0 °F 43.0 °F 30% 29.96 in 10.0 mi Calm Calm - N/A   Clear
10:53 AM 80.1 °F 43.0 °F 27% 29.95 in 10.0 mi SSW 4.6 mph - N/A   Clear
11:53 AM 84.0 °F 43.0 °F 24% 29.93 in 10.0 mi South 12.7 mph 17.3 mph N/A   Clear
12:06 PM 84.2 °F 42.8 °F 23% 30.29 in 10.0 mi SSE 12.7 mph 23.0 mph N/A Thunderstorm Clear
12:36 PM 82.4 °F 42.8 °F 25% 30.29 in 10.0 mi SSE 6.9 mph 17.3 mph N/A   Clear
12:53 PM 80.1 °F 39.9 °F 24% 29.93 in 10.0 mi WNW 4.6 mph - N/A   Partly Cloudy
1:11 PM 80.6 °F 39.2 °F 23% 30.29 in 10.0 mi WSW 8.1 mph 16.1 mph N/A Thunderstorm Mostly Cloudy
1:31 PM 80.6 °F 39.2 °F 23% 30.30 in 10.0 mi West 19.6 mph 26.5 mph N/A Thunderstorm Scattered Clouds
1:53 PM 78.1 °F 44.1 °F 30% 29.97 in 10.0 mi West 25.3 mph 35.7 mph N/A   Clear
2:14 PM 80.6 °F 42.8 °F 26% 30.30 in 10.0 mi West 21.9 mph 31.1 mph N/A Thunderstorm Clear
2:33 PM 80.6 °F 39.2 °F 23% 30.31 in 10.0 mi West 21.9 mph 36.8 mph N/A   Clear
2:53 PM 80.1 °F 37.9 °F 22% 29.97 in 10.0 mi WSW 12.7 mph 20.7 mph N/A   Clear
3:53 PM 82.0 °F 36.0 °F 19% 29.96 in 10.0 mi South 10.4 mph - N/A   Clear
4:53 PM 80.1 °F 36.0 °F 20% 29.96 in 10.0 mi SSW 5.8 mph - N/A   Mostly Cloudy
5:53 PM 77.0 °F 39.9 °F 26% 29.96 in 10.0 mi North 15.0 mph - N/A   Clear
6:53 PM 73.0 °F 44.1 °F 35% 29.97 in 10.0 mi NW 13.8 mph - N/A   Scattered Clouds
7:53 PM 70.0 °F 43.0 °F 38% 29.97 in 10.0 mi NW 10.4 mph - N/A   Mostly Cloudy
8:53 PM 69.1 °F 44.1 °F 40% 29.96 in 10.0 mi NW 4.6 mph - N/A   Mostly Cloudy
9:53 PM 69.1 °F 44.1 °F 40% 29.95 in 10.0 mi WNW 6.9 mph - N/A   Mostly Cloudy
10:53 PM 66.0 °F 45.0 °F 47% 29.96 in 10.0 mi SE 6.9 mph - 0.00 in   Clear
11:53 PM 66.9 °F 45.0 °F 45% 29.94 in 10.0 mi NE 10.4 mph - N/A   Mostly Cloudy